Muscle Shoals, AL

9:06 PM CST on December 13, 2019 (GMT -0600)
Northwest Alabama Regional

Weather History for KMSL - November, 2019

Change the Weather History Date:

Tuesday, November 19, 2019

  Actual Average Record
Temperature  
Mean Temperature 55 °F 51 °F  
Max Temperature 68 °F 62 °F 83 °F (1906)
Min Temperature 41 °F 40 °F 17 °F (1903)
Degree Days  
Heating Degree Days 10 14  
Month to date heating degree days 341 217  
Since 1 July heating degree days 459 385  
Cooling Degree Days 0 0  
Month to date cooling degree days 0 4  
Year to date cooling degree days 2502 1868  
Growing Degree Days 4 (Base 50)    
Moisture  
Dew Point 39 °F    
Average Humidity 64    
Maximum Humidity 90    
Minimum Humidity 38    
Precipitation  
Precipitation 0.02 in 0.17 in 3.15 in (1944)
Month to date precipitation 0.37 2.67  
Year to date precipitation 54.33 45.53  
Snow  
Snow 0.00 in - - ()
Month to date snowfall T  
Since 1 July snowfall T  
Since 1 September snowfall T  
Snow Depth 0.00 in    
Sea Level Pressure  
Sea Level Pressure 29.91 in    
Wind  
Wind Speed 6 mph (WSW)    
Max Wind Speed 20 mph    
Max Gust Speed 26 mph    
Visibility 10 miles    
Events Rain    
T = Trace of Precipitation, MM = Missing Value Source: NWS Daily Summary

Daily Weather History Graph

Daily Weather History Graph

Search for Another Location

Airport or City:

Astronomy

Nov. 19, 2019 Rise Set
Actual Time 6:28 AM CST 4:43 PM CST
Civil Twilight 6:01 AM CST 5:10 PM CST
Nautical Twilight 5:30 AM CST 5:40 PM CST
Astronomical Twilight 5:00 AM CST 6:10 PM CST
Moon 11:35 PM CST (11/19) 12:39 PM CST (11/19)
Length of Visible Light 11h 09m
Length of Day
10h 15m
Waning Gibbous, 51% of the Moon is Illuminated
Nov 19
Waning Gibbous
Nov 19
Last Quarter
Nov 26
New
Dec 4
First Quarter
Dec 11
Full

Hourly Weather History & Observations

Time (CST) Temp. Windchill Dew Point Humidity Pressure Visibility Wind Dir Wind Speed Gust Speed Precip Events Conditions
12:53 AM 45.0 °F 42.6 °F 39.9 °F 82% 29.86 in 10.0 mi SSE 4.6 mph - N/A   Overcast
1:53 AM 46.0 °F - 39.9 °F 79% 29.86 in 10.0 mi Calm Calm - N/A   Overcast
2:53 AM 46.0 °F - 39.0 °F 76% 29.85 in 10.0 mi Calm Calm - N/A   Overcast
3:53 AM 45.0 °F 42.6 °F 41.0 °F 86% 29.84 in 10.0 mi SSE 4.6 mph - 0.02 in Rain Light Rain
4:53 AM 45.0 °F 42.6 °F 42.1 °F 90% 29.83 in 10.0 mi SE 4.6 mph - 0.00 in   Overcast
5:53 AM 45.0 °F 42.6 °F 42.1 °F 90% 29.84 in 9.0 mi ESE 4.6 mph - 0.00 in Rain Light Rain
6:53 AM 43.0 °F 40.3 °F 39.9 °F 89% 29.85 in 10.0 mi SSE 4.6 mph - 0.00 in   Partly Cloudy
7:53 AM 48.0 °F - 42.1 °F 80% 29.86 in 10.0 mi South 4.6 mph - N/A   Clear
8:53 AM 53.1 °F - 42.1 °F 66% 29.87 in 10.0 mi SSW 6.9 mph - N/A   Clear
9:53 AM 57.0 °F - 42.1 °F 57% 29.88 in 10.0 mi West 4.6 mph - N/A   Clear
10:53 AM 60.1 °F - 41.0 °F 49% 29.86 in 10.0 mi West 5.8 mph - N/A   Clear
11:53 AM 63.0 °F - 42.1 °F 46% 29.86 in 10.0 mi WNW 10.4 mph 19.6 mph N/A   Clear
12:53 PM 64.9 °F - 44.1 °F 47% 29.85 in 10.0 mi West 12.7 mph - N/A   Clear
1:53 PM 66.9 °F - 44.1 °F 44% 29.86 in 10.0 mi NW 12.7 mph 23.0 mph N/A   Clear
3:53 PM 66.0 °F - 39.9 °F 38% 29.90 in 10.0 mi WNW 15.0 mph - N/A   Clear
4:53 PM 62.1 °F - 37.9 °F 41% 29.94 in 10.0 mi WNW 10.4 mph - N/A   Clear
5:53 PM 57.9 °F - 39.0 °F 49% 29.97 in 10.0 mi WNW 8.1 mph - N/A   Clear
6:53 PM 57.9 °F - 36.0 °F 44% 29.99 in 10.0 mi NNW 5.8 mph - N/A   Clear
7:53 PM 53.1 °F - 35.1 °F 50% 30.01 in 10.0 mi NW 3.5 mph - N/A   Clear
8:53 PM 50.0 °F - 33.1 °F 52% 30.03 in 10.0 mi Calm Calm - N/A   Clear
9:53 PM 46.0 °F - 33.1 °F 61% 30.03 in 10.0 mi Calm Calm - N/A   Clear
10:53 PM 43.0 °F - 35.1 °F 74% 30.04 in 10.0 mi Calm Calm - N/A   Clear
11:53 PM 42.1 °F - 37.0 °F 82% 30.05 in 10.0 mi Calm Calm - N/A   Clear